ACA323 CYUL-CYYC

Flight info

Callsign ACA323
Flight time 1h 28m
Altitude 40000
Route KESKA DCT BIPKO DCT IPSAK DCT OMEGI DCT RADEN DCT DASUG Q919 OMVEG DCT AMENU DCT GUDOG DCT BIRKO BIRKO6
Aircraft A333/H-SDE3GHIJ2J3J5M1RVWXY/LB2D1

Departure

Time 2026-05-04 20:46
Airport Montreal / Pierre Elliott Trudeau International Airport (CYUL)

Arrival

Time 2026-05-04 22:15
Airport Calgary International Airport (CYYC)
Time Latitude Longitude Altitude Speed Heading
2026-05-04 20:29 45.45974 -73.75737 116 ft 0 kts 178°
2026-05-04 20:35 45.45975 -73.75737 116 ft 1 kts 178°
2026-05-04 20:36 45.45999 -73.75739 115 ft 4 kts 178°
2026-05-04 20:36 45.46023 -73.75740 117 ft 3 kts 176°
2026-05-04 20:36 45.46047 -73.75749 115 ft 4 kts 138°
2026-05-04 20:36 45.46058 -73.75778 116 ft 4 kts 89°
2026-05-04 20:37 45.46056 -73.75816 116 ft 4 kts 86°
2026-05-04 20:37 45.46055 -73.75823 115 ft 5 kts 88°
2026-05-04 20:39 45.46055 -73.75804 116 ft 7 kts 88°
2026-05-04 20:39 45.46079 -73.75725 116 ft 10 kts 29°
2026-05-04 20:40 45.46132 -73.75655 117 ft 10 kts 90°
2026-05-04 20:40 45.46134 -73.75550 117 ft 11 kts 88°
2026-05-04 20:40 45.46137 -73.75429 120 ft 13 kts 88°
2026-05-04 20:40 45.46142 -73.75298 116 ft 14 kts 88°
2026-05-04 20:41 45.46146 -73.75154 120 ft 15 kts 88°
2026-05-04 20:41 45.46150 -73.74999 120 ft 16 kts 87°
2026-05-04 20:41 45.46156 -73.74815 115 ft 23 kts 88°
2026-05-04 20:41 45.46138 -73.74562 115 ft 26 kts 123°
2026-05-04 20:42 45.46130 -73.74323 117 ft 29 kts 88°
2026-05-04 20:42 45.46146 -73.74053 116 ft 19 kts 63°
2026-05-04 20:42 45.46265 -73.73892 117 ft 29 kts 42°
2026-05-04 20:42 45.46433 -73.73670 116 ft 37 kts 43°
2026-05-04 20:43 45.46635 -73.73408 116 ft 40 kts 43°
2026-05-04 20:43 45.46853 -73.73117 118 ft 46 kts 44°
2026-05-04 20:43 45.47102 -73.72796 115 ft 49 kts 43°
2026-05-04 20:43 45.47350 -73.72470 115 ft 48 kts 42°
2026-05-04 20:44 45.47592 -73.72154 115 ft 46 kts 42°
2026-05-04 20:44 45.47788 -73.71896 116 ft 24 kts 44°
2026-05-04 20:44 45.47781 -73.71766 118 ft 11 kts 131°
2026-05-04 20:44 45.47727 -73.71681 118 ft 13 kts 132°
2026-05-04 20:45 45.47667 -73.71655 117 ft 8 kts 198°
2026-05-04 20:45 45.47627 -73.71703 116 ft 6 kts 223°
2026-05-04 20:45 45.47627 -73.71704 116 ft 0 kts 223°
2026-05-04 20:45 45.47620 -73.71712 116 ft 9 kts 223°
2026-05-04 20:46 45.47420 -73.71974 115 ft 72 kts 222°
2026-05-04 20:46 45.46899 -73.72655 117 ft 130 kts 223°
2026-05-04 20:46 45.46111 -73.73678 264 ft 169 kts 221°
2026-05-04 20:46 45.45233 -73.74785 1050 ft 168 kts 221°
2026-05-04 20:47 45.44414 -73.75970 1963 ft 168 kts 235°
2026-05-04 20:47 45.43895 -73.77410 2853 ft 161 kts 251°
2026-05-04 20:47 45.43711 -73.78944 3715 ft 154 kts 264°
2026-05-04 20:47 45.43951 -73.80394 4510 ft 153 kts 301°
2026-05-04 20:48 45.44628 -73.81469 5410 ft 139 kts 307°
2026-05-04 20:48 45.46766 -73.85803 7264 ft 173 kts 299°
2026-05-04 20:48 45.49815 -73.91852 9813 ft 208 kts 302°
2026-05-04 20:48 45.53566 -73.99183 12047 ft 252 kts 302°
2026-05-04 20:49 45.58013 -74.07919 14364 ft 288 kts 302°
2026-05-04 20:49 45.62877 -74.17484 16932 ft 307 kts 303°
2026-05-04 20:49 45.68075 -74.27685 19259 ft 325 kts 303°
2026-05-04 20:49 45.71761 -74.35615 20801 ft 336 kts 292°
2026-05-04 20:50 45.72970 -74.43561 21932 ft 348 kts 277°
2026-05-04 20:50 45.73838 -74.57587 23979 ft 358 kts 276°
2026-05-04 20:50 45.74547 -74.67989 25314 ft 363 kts 277°
2026-05-04 20:50 45.75526 -74.82451 27091 ft 369 kts 277°
2026-05-04 20:51 45.77484 -74.96946 28803 ft 372 kts 284°
2026-05-04 20:51 45.79710 -75.11569 30351 ft 378 kts 284°
2026-05-04 20:51 45.81965 -75.26432 31636 ft 385 kts 284°
2026-05-04 20:51 45.84183 -75.41183 33240 ft 382 kts 285°
2026-05-04 20:52 45.86407 -75.56109 34364 ft 387 kts 284°
2026-05-04 20:52 45.88654 -75.71337 35274 ft 392 kts 284°
2026-05-04 20:52 45.90907 -75.86772 36124 ft 398 kts 283°
2026-05-04 20:52 45.93328 -76.02427 36925 ft 403 kts 290°
2026-05-04 20:53 45.98507 -76.16785 37697 ft 408 kts 296°
2026-05-04 20:53 46.03853 -76.31275 38410 ft 412 kts 297°
2026-05-04 20:53 46.09264 -76.45921 39013 ft 414 kts 296°
2026-05-04 20:53 46.14674 -76.60664 39529 ft 417 kts 296°
2026-05-04 20:54 46.20149 -76.75662 39659 ft 427 kts 296°
2026-05-04 20:54 46.25644 -76.90796 39637 ft 423 kts 296°
2026-05-04 20:54 46.36494 -77.20937 39624 ft 422 kts 295°
2026-05-04 20:55 46.45435 -77.46036 39616 ft 421 kts 295°
2026-05-04 20:55 46.56118 -77.76339 39612 ft 424 kts 295°
2026-05-04 20:56 46.66764 -78.06882 39601 ft 422 kts 295°
2026-05-04 20:56 46.77281 -78.37408 39589 ft 422 kts 294°
2026-05-04 20:57 46.87768 -78.68210 39575 ft 424 kts 294°
2026-05-04 20:57 46.98174 -78.99132 39565 ft 423 kts 293°
2026-05-04 20:58 47.08489 -79.30153 39555 ft 423 kts 293°
2026-05-04 20:58 47.18676 -79.61161 39542 ft 422 kts 292°
2026-05-04 20:59 47.28770 -79.92259 39526 ft 423 kts 292°
2026-05-04 20:59 47.38845 -80.23680 39505 ft 425 kts 292°
2026-05-04 21:00 47.48856 -80.55294 39470 ft 425 kts 291°
2026-05-04 21:00 47.58521 -80.87224 39448 ft 424 kts 286°
2026-05-04 21:01 47.66432 -81.20409 39454 ft 427 kts 286°
2026-05-04 21:01 47.74297 -81.53772 39460 ft 430 kts 285°
2026-05-04 21:02 47.82158 -81.87628 39462 ft 434 kts 286°
2026-05-04 21:02 47.89953 -82.21741 39456 ft 437 kts 286°
2026-05-04 21:03 47.97675 -82.56073 39452 ft 434 kts 286°
2026-05-04 21:03 48.05267 -82.90395 39444 ft 435 kts 286°
2026-05-04 21:04 48.12747 -83.24770 39430 ft 434 kts 285°
2026-05-04 21:04 48.20050 -83.58895 39437 ft 432 kts 285°
2026-05-04 21:05 48.27328 -83.93481 39418 ft 435 kts 285°
2026-05-04 21:05 48.34517 -84.28244 39398 ft 436 kts 284°
2026-05-04 21:06 48.41627 -84.63201 39390 ft 439 kts 284°
2026-05-04 21:06 48.48647 -84.98384 39377 ft 438 kts 284°
2026-05-04 21:07 48.55571 -85.33706 39385 ft 440 kts 284°
2026-05-04 21:07 48.62414 -85.69227 39373 ft 441 kts 284°
2026-05-04 21:08 48.69149 -86.04803 39362 ft 440 kts 284°
2026-05-04 21:08 48.76404 -86.40248 39336 ft 443 kts 291°
2026-05-04 21:09 48.85889 -86.74746 39342 ft 444 kts 290°
2026-05-04 21:09 48.95263 -87.09419 39332 ft 443 kts 290°
2026-05-04 21:10 49.04518 -87.44173 39336 ft 443 kts 290°
2026-05-04 21:10 49.13695 -87.79156 39334 ft 444 kts 289°
2026-05-04 21:11 49.22764 -88.14260 39336 ft 444 kts 289°
2026-05-04 21:11 49.31743 -88.49559 39332 ft 447 kts 289°
2026-05-04 21:12 49.40645 -88.85110 39346 ft 444 kts 289°
2026-05-04 21:12 49.49409 -89.20681 39353 ft 445 kts 289°
2026-05-04 21:13 49.58064 -89.56360 39378 ft 447 kts 288°
2026-05-04 21:13 49.66530 -89.91859 39382 ft 443 kts 288°
2026-05-04 21:14 49.74946 -90.27708 39402 ft 441 kts 288°
2026-05-04 21:14 49.83231 -90.63619 39414 ft 445 kts 288°
2026-05-04 21:15 49.91447 -90.99818 39439 ft 442 kts 288°
2026-05-04 21:15 49.99537 -91.36086 39469 ft 447 kts 288°
2026-05-04 21:16 50.07548 -91.72631 39498 ft 445 kts 287°
2026-05-04 21:16 50.14487 -92.09734 39491 ft 445 kts 282°
2026-05-04 21:17 50.20284 -92.47179 39542 ft 444 kts 283°
2026-05-04 21:17 50.25993 -92.84754 39557 ft 446 kts 283°
2026-05-04 21:18 50.31598 -93.22526 39569 ft 444 kts 282°
2026-05-04 21:18 50.37079 -93.60376 39590 ft 447 kts 282°
2026-05-04 21:19 50.42451 -93.98419 39627 ft 446 kts 282°
2026-05-04 21:19 50.47689 -94.36470 39655 ft 447 kts 282°
2026-05-04 21:20 50.52805 -94.74629 39667 ft 446 kts 282°
2026-05-04 21:20 50.57812 -95.12984 39681 ft 449 kts 282°
2026-05-04 21:21 50.62692 -95.51419 39714 ft 448 kts 281°
2026-05-04 21:21 50.67438 -95.89880 39747 ft 446 kts 281°
2026-05-04 21:22 50.72046 -96.28318 39770 ft 444 kts 281°
2026-05-04 21:22 50.76520 -96.66758 39779 ft 449 kts 281°
2026-05-04 21:23 50.80863 -97.05241 39764 ft 448 kts 281°
2026-05-04 21:23 50.85099 -97.43973 39787 ft 446 kts 281°
2026-05-04 21:24 50.89215 -97.82854 39806 ft 448 kts 281°
2026-05-04 21:24 50.93198 -98.21780 39822 ft 446 kts 280°
2026-05-04 21:25 50.97045 -98.60693 39837 ft 446 kts 281°
2026-05-04 21:25 51.00761 -98.99655 39844 ft 447 kts 280°
2026-05-04 21:26 51.04358 -99.38796 39845 ft 448 kts 280°
2026-05-04 21:26 51.07826 -99.78014 39831 ft 449 kts 280°
2026-05-04 21:27 51.11171 -100.17345 39829 ft 448 kts 279°
2026-05-04 21:27 51.14400 -100.56681 39859 ft 450 kts 279°
2026-05-04 21:28 51.17498 -100.96129 39869 ft 448 kts 279°
2026-05-04 21:28 51.20460 -101.35570 39875 ft 448 kts 279°
2026-05-04 21:29 51.23286 -101.75017 39890 ft 448 kts 279°
2026-05-04 21:29 51.25990 -102.14672 39899 ft 448 kts 279°
2026-05-04 21:30 51.28552 -102.54241 39852 ft 448 kts 279°
2026-05-04 21:30 51.30983 -102.93906 39914 ft 448 kts 278°
2026-05-04 21:31 51.34381 -103.53530 39949 ft 449 kts 278°
2026-05-04 21:32 51.36458 -103.92934 39977 ft 448 kts 278°
2026-05-04 21:32 51.38416 -104.32663 39985 ft 448 kts 278°
2026-05-04 21:33 51.40245 -104.72522 39990 ft 450 kts 278°
2026-05-04 21:33 51.41938 -105.12425 39997 ft 449 kts 277°
2026-05-04 21:34 51.43498 -105.52398 39982 ft 449 kts 277°
2026-05-04 21:34 51.44921 -105.92390 40011 ft 450 kts 277°
2026-05-04 21:35 51.46210 -106.32461 40028 ft 450 kts 277°
2026-05-04 21:35 51.47360 -106.72504 40048 ft 449 kts 277°
2026-05-04 21:36 51.48373 -107.12512 40061 ft 448 kts 277°
2026-05-04 21:36 51.49250 -107.52484 40071 ft 449 kts 276°
2026-05-04 21:37 51.49989 -107.92479 40073 ft 448 kts 276°
2026-05-04 21:37 51.50593 -108.32413 40085 ft 448 kts 276°
2026-05-04 21:38 51.51059 -108.72171 40094 ft 449 kts 276°
2026-05-04 21:38 51.51394 -109.12614 40045 ft 450 kts 275°
2026-05-04 21:39 51.51589 -109.52532 40078 ft 450 kts 275°
2026-05-04 21:39 51.51649 -109.92753 40114 ft 451 kts 275°
2026-05-04 21:40 51.51647 -110.33000 40119 ft 451 kts 275°
2026-05-04 21:40 51.51522 -110.73197 40129 ft 449 kts 275°
2026-05-04 21:41 51.51264 -111.13207 40129 ft 448 kts 275°
2026-05-04 21:41 51.50871 -111.53023 40138 ft 445 kts 275°
2026-05-04 21:42 51.50345 -111.92700 40135 ft 443 kts 275°
2026-05-04 21:42 51.49688 -112.32264 40105 ft 443 kts 275°
2026-05-04 21:43 51.48899 -112.71711 40083 ft 442 kts 276°
2026-05-04 21:43 51.47984 -113.10926 40108 ft 439 kts 276°
2026-05-04 21:43 51.46656 -113.30485 40110 ft 460 kts 255°
2026-05-04 21:44 51.40563 -113.40532 40116 ft 497 kts 218°
2026-05-04 21:44 51.30119 -113.53989 40126 ft 460 kts 255°
2026-05-04 21:44 51.28005 -113.73088 40112 ft 445 kts 264°
2026-05-04 21:44 51.18697 -113.87036 40080 ft 512 kts 200°
2026-05-04 21:45 51.04390 -113.84228 40094 ft 534 kts 163°
2026-05-04 21:45 50.90237 -113.85106 40116 ft 506 kts 213°
2026-05-04 21:45 50.77396 -113.94410 40128 ft 514 kts 206°
2026-05-04 21:46 50.50455 -114.10085 40114 ft 518 kts 206°
2026-05-04 21:46 50.23497 -114.25803 40098 ft 517 kts 206°
2026-05-04 21:47 49.96555 -114.41567 40071 ft 514 kts 206°
2026-05-04 21:47 49.69669 -114.57351 40099 ft 517 kts 206°
2026-05-04 21:48 49.42675 -114.73260 40078 ft 521 kts 206°
2026-05-04 21:48 49.15632 -114.89278 40036 ft 522 kts 206°
2026-05-04 21:49 48.88571 -115.05398 39983 ft 522 kts 206°
2026-05-04 21:49 48.61533 -115.21626 39947 ft 522 kts 206°
2026-05-04 21:50 48.34540 -115.37920 39915 ft 521 kts 206°
2026-05-04 21:50 48.07618 -115.54224 39843 ft 522 kts 206°
2026-05-04 21:51 47.80724 -115.70564 39820 ft 521 kts 206°
2026-05-04 21:51 47.69347 -115.77738 39805 ft 516 kts 214°
2026-05-04 21:51 47.65845 -115.81298 39685 ft 505 kts 227°
2026-05-04 21:52 47.61603 -115.89269 38304 ft 484 kts 255°
2026-05-04 21:52 47.59883 -115.98511 37159 ft 450 kts 276°
2026-05-04 21:52 47.60404 -116.07430 35924 ft 425 kts 294°
2026-05-04 21:52 47.62785 -116.15224 34717 ft 410 kts 310°
2026-05-04 21:53 47.66632 -116.21354 33282 ft 407 kts 325°
2026-05-04 21:53 47.71615 -116.25366 31681 ft 411 kts 341°
2026-05-04 21:53 47.77287 -116.26841 29986 ft 423 kts 357°
2026-05-04 21:53 47.83126 -116.25374 28562 ft 430 kts 15°
2026-05-04 21:54 47.88603 -116.21761 27306 ft 429 kts 20°
2026-05-04 21:54 47.93972 -116.18069 26157 ft 422 kts 20°
2026-05-04 21:54 47.99278 -116.14425 24995 ft 417 kts 20°
2026-05-04 21:54 48.04521 -116.10817 23902 ft 412 kts 20°
2026-05-04 21:55 48.09691 -116.07250 22725 ft 407 kts 20°
2026-05-04 21:55 48.14729 -116.03769 21623 ft 400 kts 20°
2026-05-04 21:55 48.19718 -116.00311 20471 ft 393 kts 21°
2026-05-04 21:55 48.24626 -115.96907 19551 ft 382 kts 21°
2026-05-04 21:56 48.29428 -115.93570 18844 ft 380 kts 21°
2026-05-04 21:56 48.34213 -115.90235 18154 ft 378 kts 21°
2026-05-04 21:56 48.38957 -115.86925 17363 ft 374 kts 21°
2026-05-04 21:56 48.43649 -115.83643 16603 ft 370 kts 21°
2026-05-04 21:57 48.48300 -115.80387 15837 ft 367 kts 21°
2026-05-04 21:57 48.52921 -115.77138 15101 ft 365 kts 21°
2026-05-04 21:57 48.57493 -115.73923 14395 ft 361 kts 22°
2026-05-04 21:57 48.62027 -115.70725 13686 ft 359 kts 22°
2026-05-04 21:58 48.66542 -115.67537 12905 ft 356 kts 22°
2026-05-04 21:58 48.70992 -115.64377 12139 ft 351 kts 22°
2026-05-04 21:58 48.75390 -115.61257 11391 ft 347 kts 22°
2026-05-04 21:58 48.79737 -115.58166 10666 ft 343 kts 23°
2026-05-04 21:59 48.84028 -115.55109 9939 ft 339 kts 22°
2026-05-04 21:59 48.88282 -115.52083 9168 ft 336 kts 23°
2026-05-04 21:59 48.92494 -115.49060 8404 ft 332 kts 25°
2026-05-04 21:59 48.96650 -115.46100 7654 ft 327 kts 25°
2026-05-04 22:00 49.00748 -115.43160 6920 ft 323 kts 27°
2026-05-04 22:00 49.03748 -115.41071 8364 ft 306 kts 24°
2026-05-04 22:00 49.05741 -115.39673 8457 ft 316 kts 25°
2026-05-04 22:00 49.07662 -115.38269 8503 ft 296 kts 25°
2026-05-04 22:01 49.09473 -115.36934 8403 ft 283 kts 25°
2026-05-04 22:01 49.13490 -115.33994 8392 ft 268 kts 25°
2026-05-04 22:01 49.20291 -115.29066 8400 ft 274 kts 25°
2026-05-04 22:01 49.27139 -115.24099 8413 ft 269 kts 25°
2026-05-04 22:02 49.33934 -115.19158 8420 ft 272 kts 25°
2026-05-04 22:02 49.40782 -115.14157 8438 ft 273 kts 24°
2026-05-04 22:02 49.47618 -115.09153 8463 ft 272 kts 25°
2026-05-04 22:02 49.54454 -115.04139 8460 ft 272 kts 25°
2026-05-04 22:03 49.61324 -114.99079 8482 ft 272 kts 25°
2026-05-04 22:03 49.68153 -114.94034 8484 ft 271 kts 26°
2026-05-04 22:03 49.74968 -114.88988 8499 ft 271 kts 25°
2026-05-04 22:03 49.81767 -114.83923 8497 ft 271 kts 25°
2026-05-04 22:04 49.88634 -114.78806 8505 ft 272 kts 25°
2026-05-04 22:04 49.95412 -114.73732 8509 ft 271 kts 25°
2026-05-04 22:04 50.01895 -114.68865 9521 ft 262 kts 25°
2026-05-04 22:04 50.08797 -114.63676 9511 ft 271 kts 25°
2026-05-04 22:05 50.15611 -114.58528 9510 ft 275 kts 25°
2026-05-04 22:05 50.22437 -114.53348 9522 ft 267 kts 24°
2026-05-04 22:05 50.29232 -114.48203 8481 ft 280 kts 24°
2026-05-04 22:05 50.35942 -114.43083 7166 ft 268 kts 25°
2026-05-04 22:06 50.42400 -114.38138 6496 ft 249 kts 25°
2026-05-04 22:06 50.48797 -114.33238 6510 ft 259 kts 24°
2026-05-04 22:06 50.55078 -114.28404 6511 ft 254 kts 24°
2026-05-04 22:06 50.61439 -114.23497 6517 ft 255 kts 24°
2026-05-04 22:07 50.72117 -114.15220 6517 ft 254 kts 24°
2026-05-04 22:07 50.78461 -114.10286 6533 ft 252 kts 23°
2026-05-04 22:07 50.82134 -114.07406 6503 ft 212 kts 22°
2026-05-04 22:07 50.83422 -114.06398 6526 ft 204 kts 22°
2026-05-04 22:08 50.84673 -114.05422 6538 ft 198 kts 23°
2026-05-04 22:08 50.85905 -114.04464 6527 ft 197 kts 22°
2026-05-04 22:08 50.87136 -114.03505 6522 ft 196 kts 22°
2026-05-04 22:08 50.88303 -114.02585 6515 ft 179 kts 22°
2026-05-04 22:09 50.89378 -114.01748 6504 ft 166 kts 21°
2026-05-04 22:09 50.90427 -114.01016 6513 ft 164 kts 18°
2026-05-04 22:09 50.91493 -114.00398 6509 ft 162 kts 14°
2026-05-04 22:09 50.92615 -113.99886 6519 ft 173 kts 11°
2026-05-04 22:10 50.93754 -113.99495 6506 ft 160 kts
2026-05-04 22:10 50.94810 -113.99192 6502 ft 150 kts
2026-05-04 22:10 50.95843 -113.99060 6501 ft 149 kts
2026-05-04 22:10 50.96891 -113.99045 6485 ft 151 kts 358°
2026-05-04 22:11 50.97927 -113.99041 6287 ft 148 kts 359°
2026-05-04 22:11 50.98951 -113.99033 6075 ft 145 kts 359°
2026-05-04 22:11 50.99928 -113.99029 5861 ft 137 kts 359°
2026-05-04 22:11 51.00868 -113.99028 5677 ft 135 kts 359°
2026-05-04 22:12 51.01814 -113.99028 5491 ft 137 kts 358°
2026-05-04 22:12 51.02765 -113.99029 5298 ft 136 kts 360°
2026-05-04 22:12 51.03706 -113.99029 5113 ft 134 kts 359°
2026-05-04 22:12 51.04644 -113.99028 4939 ft 136 kts 359°
2026-05-04 22:13 51.05599 -113.99029 4749 ft 138 kts 359°
2026-05-04 22:13 51.06543 -113.99029 4568 ft 134 kts
2026-05-04 22:13 51.07471 -113.99036 4364 ft 133 kts
2026-05-04 22:13 51.08386 -113.99032 4177 ft 134 kts
2026-05-04 22:14 51.09303 -113.99018 3906 ft 128 kts
2026-05-04 22:14 51.10191 -113.99043 3808 ft 130 kts
2026-05-04 22:14 51.11119 -113.99045 3629 ft 134 kts
2026-05-04 22:14 51.12030 -113.99028 3568 ft 121 kts
2026-05-04 22:15 51.12720 -113.99033 3561 ft 63 kts
2026-05-04 22:15 51.13030 -113.99128 3564 ft 37 kts 330°
2026-05-04 22:15 51.13100 -113.99198 3559 ft 7 kts 312°
2026-05-04 22:15 51.13108 -113.99257 3560 ft 5 kts 256°
2026-05-04 22:16 51.13078 -113.99295 3561 ft 9 kts 199°
2026-05-04 22:16 51.12985 -113.99306 3567 ft 19 kts 184°
2026-05-04 22:16 51.12830 -113.99299 3562 ft 27 kts 179°
2026-05-04 22:16 51.12715 -113.99325 3564 ft 5 kts 233°
2026-05-04 22:17 51.12706 -113.99429 3563 ft 15 kts 270°
2026-05-04 22:17 51.12705 -113.99665 3564 ft 27 kts 271°
2026-05-04 22:17 51.12705 -114.00002 3564 ft 31 kts 270°
2026-05-04 22:17 51.12739 -114.00138 3558 ft 11 kts 345°
2026-05-04 22:18 51.12793 -114.00155 3564 ft 3 kts 313°
2026-05-04 22:18 51.12801 -114.00182 3563 ft 3 kts 288°
2026-05-04 22:18 51.12804 -114.00214 3562 ft 3 kts 269°
2026-05-04 22:18 51.12804 -114.00228 3560 ft 1 kts 269°
2026-05-04 22:19 51.12804 -114.00243 3558 ft 2 kts 269°
2026-05-04 22:19 51.12804 -114.00260 3561 ft 0 kts 269°
2026-05-04 22:19 51.12804 -114.00268 3562 ft 0 kts 269°
2026-05-04 22:19 51.12804 -114.00241 3558 ft 0 kts 269°
2026-05-04 22:20 51.12803 -114.00257 3561 ft 0 kts 269°